Location: Newark
(47.4906°N, 19.0585°E)
Time: 07:16:19
(UTC+00:00)

N. Korean satellite - Visible Passes

Search period start: 16 December 2019 00:00
Search period end: 26 December 2019 00:00
Orbit: 455 x 507 km, 97.2° (Epoch: 15 December)

Date Brightness Start Highest point End Pass type
(mag) Time Alt. Az. Time Alt. Az. Time Alt. Az.
16 Dec 8.7 04:02:23 10° NE 04:05:25 26° E 04:08:22 10° SSE visible
16 Dec 7.7 05:35:56 10° NNW 05:38:41 22° WNW 05:41:24 10° WSW visible
16 Dec 8.4 16:13:41 10° SSW 16:17:06 36° W 16:20:31 10° NNW visible
17 Dec 9.8 03:37:52 10° ENE 03:39:45 14° E 03:41:37 10° ESE visible
17 Dec 6.8 05:10:04 10° N 05:13:23 41° WNW 05:16:39 10° SW visible
17 Dec 6.9 15:47:56 10° S 15:51:37 74° W 15:55:15 10° NNW visible
18 Dec 6.4 04:44:30 10° NNE 04:48:00 89° W 04:51:27 10° SSW visible
18 Dec 6.7 15:22:36 10° SSE 15:26:11 54° ENE 15:29:45 10° N visible
18 Dec 10.0 16:58:19 10° WSW 16:59:54 12° W 17:01:29 10° WNW visible
19 Dec 7.7 04:19:10 10° NNE 04:22:31 42° E 04:25:47 10° S visible
19 Dec 9.2 16:31:17 10° SSW 16:34:15 23° W 16:37:12 10° NW visible
20 Dec 9.1 03:54:12 10° NE 03:56:56 21° E 03:59:37 10° SE visible
20 Dec 7.4 05:27:22 10° N 05:30:20 26° WNW 05:33:15 10° SW visible
20 Dec 7.9 16:05:10 10° S 16:08:41 44° W 16:12:10 10° NNW visible
21 Dec 10.0 03:30:13 10° ENE 03:31:15 11° E 03:32:16 10° ESE visible
21 Dec 6.5 05:01:36 10° N 05:05:00 52° WNW 05:08:20 10° SSW visible
21 Dec 6.6 15:39:34 10° SSE 15:43:13 88° ENE 15:46:50 10° NNW visible
22 Dec 6.6 04:36:06 10° NNE 04:39:34 72° ESE 04:42:58 10° S visible
22 Dec 9.8 16:49:16 10° SW 16:51:25 15° W 16:53:33 10° NW visible
23 Dec 8.2 04:10:52 10° NNE 04:14:02 33° E 04:17:10 10° SSE visible
23 Dec 7.9 05:44:51 10° NNW 05:47:12 18° WNW 05:49:33 10° WSW visible
23 Dec 8.9 16:22:37 10° SSW 16:25:47 28° W 16:28:56 10° NW visible
24 Dec 9.4 03:46:03 10° NE 03:48:25 17° E 03:50:46 10° SE visible
24 Dec 7.1 05:18:48 10° N 05:21:56 32° WNW 05:25:01 10° SW visible
24 Dec 7.4 15:56:41 10° S 16:00:14 56° W 16:03:47 10° NNW visible
25 Dec 6.3 04:53:07 10° N 04:56:34 68° WNW 04:59:57 10° SSW visible
25 Dec 6.5 15:31:12 10° SSE 15:34:48 70° ENE 15:38:21 10° N visible
